Regional Weather Roundup
Issued by NWS

Home | Current Version | Previous Version | Text Only | Print | Product List | Glossary Off
Versions: 1 2 3 4 5 6 7 8 9 10 11 12 13 14 15 16 17 18 19 20 21 22 23 24 25 26 27 28 29 30 31 32 33 34 35 36 37 38 39 40 41 42 43 44 45 46 47 48 49 50

000
ASUS43 KIND 182209
RWRIN

WEATHER ROUNDUP FOR INDIANA
NATIONAL WEATHER SERVICE INDIANAPOLIS IN
600 PM EDT WED APR 18 2018

NOTE: "FAIR" INDICATES FEW OR NO CLOUDS BELOW 12,000 FEET WITH NO
SIGNIFICANT WEATHER AND/OR OBSTRUCTIONS TO VISIBILITY.

* - STATION DOES NOT REPORT WEATHER SUCH AS PRECIPITATION OR FOG.

+ - STATION NOT QUALITY CONTROLLED BY THE NATIONAL WEATHER SERVICE.
    USE DATA WITH CAUTION...ESPECIALLY DEWPOINT AND RELATIVE
    HUMIDITY OBSERVATIONS.

INZ001>003-010>013-019-020-182300-
NORTHWEST INDIANA

CITY           SKY/WX    TMP DP  RH WIND       PRES   REMARKS
GARY /AIRPORT/ CLOUDY    37  32  81 N12G23    29.80R WCI  30
KNOX *+        CLOUDY    39  34  81 NE8       29.74F WCI  34
LA PORTE +     CLOUDY    38  33  84 NE6       29.76S WCI  33
MICHIGAN CITY+ CLOUDY    37  32  81 NE5       29.78R WCI  34
MONTICELLO +   CLOUDY    44  32  62 N6        29.72R
RENSSELAER +   CLOUDY    41  30  65 N6        29.75R
VALPARAISO     CLOUDY    40  33  76 N3        29.78R

$$

LMZ046-743>745-182300-
SOUTHERN LAKE MICHIGAN

STATION/POSITION TIME  TEMP    WIND        PRES    WAVE
                       AIR SEA DIR/SP/G            HT
                 (UTC) (F)     (DEG/KT/KT) (MB)    (FT)
BURNS HARBOR     2140   36      20/ 15/ 18 1008.8R
MICHIGAN CITY    2140   39      20/  5/  8   N/A

$$

INZ004-005-014>016-021>024-182300-
NORTH CENTRAL INDIANA

CITY           SKY/WX    TMP DP  RH WIND       PRES   REMARKS
ELKHART        CLOUDY    37  36  93 NE6       29.76F WCI  33
GOSHEN         CLOUDY    39  34  82 E7        29.75F WCI  34
LOGANSPORT +   CLOUDY    45  34  65 N3        29.71S
PERU/GRISSOM   PTSUNNY   49  38  67 E13       29.68F
ROCHESTER +    CLOUDY    45  34  65 NE9       29.72S
SOUTH BEND     CLOUDY    38  33  82 E6        29.76F WCI  33
WARSAW +       CLOUDY    37  36  93 E9        29.74S WCI  31

$$

INZ006>009-017-018-025>027-182300-
NORTHEAST INDIANA

CITY           SKY/WX    TMP DP  RH WIND       PRES   REMARKS
ANGOLA *+      CLOUDY    39  34  81 E5        29.77S WCI  36
AUBURN +       DRIZZLE   37  36  93 NE9       29.76F WCI  31
FORT WAYNE     FAIR      44  37  76 E16       29.72F
HUNTINGTON +   FAIR      45  35  68 E8G16     29.70F
KENDALLVILLE + DRIZZLE   38  34  87 E6        29.76S WCI  33

$$

INZ028-029-035-036-043>045-051>053-182300-
WEST CENTRAL INDIANA

CITY           SKY/WX    TMP DP  RH WIND       PRES   REMARKS
CRAWFORDSVL +  CLOUDY    55  44  66 W21G31    29.72R
GREENCASTLE +  PTSUNNY   59  43  55 W14G24    29.71R
LAFAYETTE      CLOUDY    49  38  65 N3        29.72R
TERRE HAUTE    LGT RAIN  58  42  55 W24G39    29.74R

$$

INZ030>032-037>040-046>048-054>057-064-065-182300-
CENTRAL INDIANA

CITY           SKY/WX    TMP DP  RH WIND       PRES   REMARKS
COLUMBUS       CLOUDY    70 N/A N/A SW5       29.62F
FISHERS *+     CLOUDY    63  50  63 W12G18    29.67R
FRANKFORT +    PTSUNNY   56  43  61 NW5       29.72R
GREENWOOD *+   CLOUDY    65  49  56 NW8       29.64R
INDIANAPOLIS   PTSUNNY   64  49  57 W25G36    29.67R
-EAGLE CREEK   CLOUDY    63  48  58 W26G39    29.66R
KOKOMO +       CLOUDY    48  38  68 NE8       29.70R
MARION +       CLOUDY    48  37  65 E12G20    29.68F
MT COMFORT *+  CLOUDY    61  52  72 W7        29.64R
SHELBYVILLE    CLOUDY    64  50  60 S5        29.61F
ZIONSVILLE +   CLOUDY    61  47  61 N13G24    29.68R

$$

INZ033-034-041-042-049-050-058-059-182300-
EAST CENTRAL INDIANA

CITY           SKY/WX    TMP DP  RH WIND       PRES   REMARKS
MUNCIE         PTSUNNY   55  41  59 NE14      29.65F
RICHMOND +     CLOUDY    57  50  77 E8        29.64F

$$

INZ060-061-067>069-081>083-085>088-182300-
SOUTHWEST INDIANA

CITY           SKY/WX    TMP DP  RH WIND       PRES   REMARKS
EVANSVILLE     PTSUNNY   73  44  35 NW18G28   29.69R
HUNTINGBURG +  LGT RAIN  66  55  68 NW16G23   29.67R
WASHINGTON +   CLOUDY    68  47  48 NW28G35   29.68R

$$

INZ062-063-066-070>080-084-089>092-182300-
SOUTH CENTRAL AND SOUTHEAST INDIANA

CITY           SKY/WX    TMP DP  RH WIND       PRES   REMARKS
BATESVILLE +   PTSUNNY   66  50  55 MISG      29.62F
BEDFORD +      LGT RAIN  68  48  49 W9G25     29.64R
BLOOMINGTON    CLOUDY    68  49  50 NW20G30   29.65R
FRENCH LICK *+ CLOUDY    63  50  63 SW5G25    29.68R
MADISON *+     CLOUDY    73  52  46 SW9       29.63F
NORTH VERNON + PTSUNNY   68  52  56 NW6       29.62F
SEYMOUR +      CLOUDY    75  52  43 W18G25    29.60F

$$





USA.gov is the U.S. government's official web portal to all federal, state and local government web resources and services.